Flag for Russia Weather past 2 weeks in Samara, Russia

Now
68 °F

More clouds than sun.


Feels Like: 68 °F
Forecast: 64 / 85 °F
Wind: 15 mph from West

Location: Samara

Current Time: Jul 4, 2015 at 2:11:06 PM

Latest Report: Jul 4, 2015 at 1:30 PM


Visibility: N/A

Pressure: 29.92 "Hg

Humidity: 49%

Dew point: 48 °F

Location of SamaraLocation

Historic Weather in Samara — Graph

°F

Samara temperature yesterday

Maximum temperature yesterday: 75 °F (at 11:30 AM)
Minimum temperature yesterday: 57 °F (at 11:30 PM)
Average temperature yesterday: 66 °F

Past Weeks' High & Low Weather Summary

 TemperatureHumidityPressure
High99 °F (Jun 21, 2:30 PM)88% (Jul 1, 6:00 PM)30.07 "Hg (Jul 1, 6:00 PM)
Low50 °F (Jul 4, 3:30 AM)17% (Jun 21, 2:30 PM)29.62 "Hg (Jun 28, 5:30 PM)
Average76 °F48%29.83 "Hg
* Reported Jun 19 1:00 PM — Jul 4 1:00 PM, Samara, Weather by CustomWeather, © 2015

Note: Actual official high and low records may vary slightly from our data, if they occured in-between our weather recording intervals... More about our weather records

Advertising

Samara weather history for previous 24 hours

 ConditionsComfort  
Time TempWeatherWind HumidityBarometerVisibility
1:00 PM
Sat, Jul 4
66 °FMore clouds than sun.17 mph52%29.92 "HgN/A
12:30 PM66 °FMostly cloudy.15 mph52%29.92 "HgN/A
12:00 PM64 °FMostly cloudy.15 mph52%29.92 "HgN/A
11:30 AM63 °FMore clouds than sun.15 mph56%29.95 "HgN/A
11:00 AM64 °FLight rain. More clouds than sun.13 mph52%29.95 "HgN/A
10:30 AM64 °FMore clouds than sun.17 mph52%29.95 "HgN/A
10:00 AM64 °FMore clouds than sun.13 mph56%29.98 "HgN/A
9:30 AM63 °FMore clouds than sun.15 mph56%29.98 "HgN/A
9:00 AM61 °FMore clouds than sun.13 mph59%29.98 "HgN/A
8:30 AM61 °FCloudy.15 mph59%30.01 "HgN/A
8:00 AM59 °FCloudy.8 mph63%30.01 "HgN/A
7:30 AM57 °FCloudy.8 mph63%30.01 "HgN/A
7:00 AM57 °FMostly cloudy.8 mph59%30.04 "HgN/A
6:30 AM57 °FCloudy.8 mph55%30.04 "HgN/A
6:00 AM55 °FCloudy.8 mph55%30.04 "HgN/A
5:30 AM54 °FBroken clouds.8 mph58%30.04 "HgN/A
5:00 AM54 °FClear.6 mph54%30.04 "Hg10 mi
4:30 AM52 °FClear.8 mph58%30.04 "Hg10 mi
4:00 AM52 °FPassing clouds.6 mph58%30.04 "HgN/A
3:30 AM50 °FPassing clouds.6 mph62%30.04 "HgN/A
3:00 AM52 °FPassing clouds.3 mph58%30.04 "HgN/A
2:30 AM54 °FClear.8 mph58%30.07 "Hg10 mi
2:00 AM54 °FPassing clouds.8 mph58%30.04 "HgN/A
1:30 AM54 °FClear.8 mph63%30.04 "Hg10 mi
1:00 AM55 °FPassing clouds.8 mph59%30.04 "HgN/A
12:30 AM55 °FClear.6 mph59%30.04 "Hg10 mi
12:00 AM57 °FClear.6 mph55%30.04 "Hg10 mi
11:30 PM
Fri, Jul 3
57 °FClear.8 mph55%30.04 "Hg10 mi
11:00 PM59 °FClear.6 mph55%30.04 "Hg10 mi
10:30 PM59 °FPartly cloudy.8 mph55%30.04 "HgN/A
10:00 PM61 °FBroken clouds.8 mph52%30.04 "HgN/A
9:30 PM61 °FBroken clouds.8 mph55%30.04 "HgN/A
9:00 PM61 °FBroken clouds.10 mph55%30.01 "HgN/A
8:30 PM63 °FBroken clouds.10 mph52%29.98 "HgN/A
8:00 PM64 °FCloudy.13 mph56%29.98 "HgN/A
7:30 PM64 °FCloudy.13 mph56%29.98 "HgN/A
7:00 PM64 °FMore clouds than sun.13 mph60%29.98 "HgN/A
6:30 PM63 °FMore clouds than sun.10 mph68%29.98 "HgN/A
6:00 PM63 °FSprinkles. More clouds than sun.13 mph68%29.95 "HgN/A
5:30 PM66 °FMore clouds than sun.13 mph49%29.95 "HgN/A
5:00 PM66 °FMore clouds than sun.13 mph52%29.95 "HgN/A
4:30 PM66 °FSprinkles. More clouds than sun.15 mph52%29.95 "HgN/A
4:00 PM68 °FCloudy.20 mph53%29.95 "HgN/A
3:30 PM68 °FCloudy.17 mph46%29.92 "HgN/A
3:00 PM70 °FCloudy.17 mph50%29.92 "HgN/A
2:30 PM70 °FCloudy.17 mph46%29.92 "HgN/A
2:00 PM72 °FCloudy.20 mph44%29.92 "HgN/A
Weather by CustomWeather, © 2015

See weather overviewHow to use our weather pages